Flag for Switzerland Weather past 2 weeks in Riehen, Basel-Stadt, Switzerland

Now
35 °F

Overcast.


Feels Like: 27 °F
Forecast: 31 / 37 °F
Wind: 12 mph from West

Location: Bale-Mulhouse

Current Time: Jan 31, 2015 at 9:11:15 PM

Latest Report: Jan 31, 2015 at 8:00 PM


Visibility: 13 mi

Pressure: 29.21 "Hg

Humidity: 87%

Dew point: 32 °F

Location of RiehenLocation

Historic Weather in Riehen — Graph

°F

Riehen temperature yesterday

Maximum temperature yesterday: 41 °F (at 12:00 AM)
Minimum temperature yesterday: 33 °F (at 9:00 AM)
Average temperature yesterday: 37 °F

Past Weeks' High & Low Weather Summary

 TemperatureHumidityPressure
High45 °F (Jan 29, 12:00 AM)98% (Jan 20, 7:00 AM)30.49 "Hg (Jan 20, 7:00 AM)
Low27 °F (Jan 18, 6:00 AM)60% (Jan 31, 12:00 PM)28.85 "Hg (Jan 30, 12:00 AM)
Average35 °F88%29.92 "Hg
* Reported Jan 16 7:00 PM — Jan 31 7:00 PM, Riehen, Weather by CustomWeather, © 2014

Note: Actual official high and low records may vary slightly from our data, if they occured in-between our weather recording intervals... More about our weather records

Advertising

Riehen weather history for previous 24 hours

 ConditionsComfort  
Time TempWeatherWind HumidityBarometerVisibility
7:00 PM
Jan 31
36 °FOvercast.6 mph88%29.21 "Hg19 mi
6:00 PM36 °FOvercast.8 mph86%29.18 "Hg19 mi
5:00 PM37 °FOvercast.8 mph87%29.15 "Hg19 mi
4:00 PM36 °FLow clouds.3 mph91%29.15 "Hg7 mi
3:00 PM35 °FLight rain. Low clouds.3 mph94%29.15 "Hg7 mi
2:00 PM35 °FLight mixture of precip. Overcast.5 mph93%29.12 "Hg2 mi
1:00 PM41 °FLow clouds.6 mph61%29.09 "Hg19 mi
12:00 PM40 °FOvercast.5 mph60%29.12 "Hg19 mi
11:00 AM39 °FOvercast.7 mph67%29.12 "Hg19 mi
10:00 AM36 °FOvercast.7 mph81%29.09 "Hg12 mi
9:00 AM32 °FOvercast.6 mph90%29.12 "Hg12 mi
8:00 AM31 °FPartly sunny.2 mph90%29.12 "Hg12 mi
7:00 AM31 °FPassing clouds.1 mph89%29.12 "Hg12 mi
6:00 AM33 °FPassing clouds.1 mph87%29.12 "Hg12 mi
5:00 AM35 °FOvercast.7 mph84%29.09 "Hg9 mi
4:00 AM35 °FOvercast.5 mph82%29.09 "Hg34 mi
3:00 AM35 °FOvercast.6 mph83%29.09 "Hg34 mi
2:00 AM35 °FOvercast.10 mph87%29.06 "Hg22 mi
1:00 AM35 °FOvercast.7 mph84%29.06 "Hg34 mi
12:00 AM35 °FOvercast.9 mph86%29.06 "Hg12 mi
11:00 PM
Jan 30
35 °FOvercast.12 mph84%29.03 "Hg12 mi
10:00 PM36 °FOvercast.15 mph84%29.00 "Hg37 mi
9:00 PM36 °FOvercast.13 mph83%29.00 "Hg12 mi
Weather by CustomWeather, © 2014

See weather overviewHow to use our weather pages